User: anonymous   Login
Location: Unspecified
(0.0000°N, 0.0000°E)
Time: 16:20:48
(UTC+00:00)
Language:

LISHUI 1-01 - Orbit

View from above orbital plane
View from above orbital plane
View from above satellite
View from above satellite

Ground track
Ground track

The orbit data is extracted from the following two-line orbital elements,

1 41845U 16066E   21337.23854655  .00006852  00000-0  83690-3 0  9995
2 41845  98.7309  90.0846 0259152 320.5825  37.6806 14.62618827268041
Epoch (UTC): 03 December 2021 05:43:30
Eccentricity: 0.0259152
inclination: 98.7309°
perigee height: 502 km
apogee height: 868 km
right ascension of ascending node: 90.0846°
argument of perigee: 320.5825°
revolutions per day: 14.62618827
mean anomaly at epoch: 37.6806°
orbit number at epoch: 26804

The dashed part of the orbit path shows where the satellite is in the earth's shadow,  

DLR